CZ-6A DEB, 61366

Orbit data source: Space-Track

CZ-6A DEB, 61366 is space debris in LEO originally from a launch on Tue, 06 Aug 2024 UTC launched from the Taiyaun Space Center, China (TSC). Debris objects in space refer to the collection of defunct objects orbiting the Earth. Examples of debris include non-operational satellites, rocket bodies, and fragments generated from explosions, collisions, or faulty payload assembly.

Loading next visibility...
Identifier
61366, 2024-140WF
Orbit
LEO
Country
Flag of CNCN / PRC
Related business
Manufacturer
SAST
Mission
Spacecraft
Bus & Motor
Unknown
Mass
Unknown
Launch date (UTC)
2024-08-06 (2 years ago)
Launch vehicle
Unknown
Launch site
Taiyaun Space Center, China (TSC)
Object type
Payload
Rocket body
Debris
Shape & HBR
Unknown shape, 0.1 m
Radar Cross Section
Medium (>0.1 m² and <1 m²)

Expand to show TLE details & history
Last TLE update: 18 hours ago

TLE from 18 hours ago
0 CZ-6A DEB
1 61366U 24140WF  26171.21233466  .00002412  00000-0  12520-2 0  9998
2 61366  88.8488 263.8783 0104227 216.4527 142.9532 14.11730989 92086
Epoch: 2026-06-20T05:05Z
TLE epoch observation values (Epoch: 2026-06-20T05:05:45.714Z)
Latitude
-0.00006°
Longitude
-80.99238°
Altitude
916.947 km
Speed
7.362 km/s
True Right ascension
17h 35m 30s
True Declination
0° 00' 00"
Sunlit
Object was in full shadow at epoch
Visualization orbit readout
Latitude
Unknown
Longitude
Unknown
Altitude
Unknown
Speed
Unknown
Apparent Right ascension
Unknown
Apparent Declination
Unknown
Sunlit
N/A
Visualization observer readout
Local Sidereal Time
10:18:05
Azimuth
Unknown
Elevation
Unknown
Doppler factor
Unknown
Orbital elements
Apogee altitude
925.759 km
Perigee altitude
775.077 km
Semi-major axis
7,228.555 km
Eccentricity
0.01042
Inclination
88.8488°
RAAN
263.8783°
Arg. of periapsis
216.4527°
True anomaly
143.66533°
Mean anomaly
142.9532°
Eccentric anomaly
143.31°
Mean motion
3.53155 °/min
Orbital period
101.94 mins
BSTAR
0.001252
Loading maneuver chart data...
Computing Atmospheric mass density...
Loading historical data...
Loading historical data...
Loading historical data...
Loading historical data...
Loading historical data...
Loading historical data...
Loading historical data...

Documentation

Showing up to 5 results
|